TimeEST,TemperatureF,Dew PointF,Humidity,Sea Level PressureIn,VisibilityMPH,Wind Direction,Wind SpeedMPH,Gust SpeedMPH,PrecipitationIn,Events,Conditions,WindDirDegrees,DateUTC
12:15 AM,23.0,14.0,68,30.20,10.0,Calm,Calm,-,N/A,,Mostly Cloudy,0,2013-11-28 05:15:00
12:35 AM,23.0,14.0,68,30.20,10.0,WSW,3.5,-,N/A,,Overcast,240,2013-11-28 05:35:00
12:54 AM,23.0,14.0,68,30.20,10.0,WSW,3.5,-,N/A,,Overcast,250,2013-11-28 05:54:00
1:15 AM,23.0,15.8,74,30.20,10.0,Calm,Calm,-,N/A,,Overcast,0,2013-11-28 06:15:00
1:35 AM,24.8,15.8,69,30.20,10.0,Calm,Calm,-,N/A,,Overcast,0,2013-11-28 06:35:00
1:54 AM,23.0,15.8,74,30.21,10.0,Calm,Calm,-,N/A,,Overcast,0,2013-11-28 06:54:00
2:15 AM,24.8,17.6,74,30.21,10.0,Calm,Calm,-,N/A,,Overcast,0,2013-11-28 07:15:00
2:35 AM,24.8,17.6,74,30.22,10.0,WSW,4.6,-,N/A,,Overcast,250,2013-11-28 07:35:00
2:54 AM,24.8,19.4,80,30.22,10.0,WSW,4.6,-,N/A,,Overcast,240,2013-11-28 07:54:00
3:15 AM,24.8,21.2,86,30.22,10.0,WSW,3.5,-,N/A,,Overcast,250,2013-11-28 08:15:00
3:35 AM,24.8,21.2,86,30.22,10.0,WSW,4.6,-,N/A,,Overcast,240,2013-11-28 08:35:00
3:54 AM,24.8,19.4,80,30.22,10.0,WSW,4.6,-,N/A,,Overcast,240,2013-11-28 08:54:00
4:15 AM,24.8,21.2,86,30.22,10.0,SW,6.9,-,N/A,,Overcast,220,2013-11-28 09:15:00
4:35 AM,24.8,19.4,80,30.22,10.0,SW,6.9,-,N/A,,Overcast,230,2013-11-28 09:35:00
4:54 AM,24.8,19.4,80,30.23,10.0,WSW,6.9,-,N/A,,Overcast,240,2013-11-28 09:54:00
5:15 AM,24.8,17.6,74,30.22,10.0,WSW,4.6,-,N/A,,Overcast,240,2013-11-28 10:15:00
5:35 AM,24.8,15.8,69,30.23,10.0,SW,5.8,-,N/A,,Overcast,230,2013-11-28 10:35:00
5:54 AM,24.8,15.8,69,30.23,10.0,SW,8.1,-,N/A,,Overcast,220,2013-11-28 10:54:00
6:15 AM,24.8,15.8,69,30.23,10.0,SW,6.9,-,N/A,,Overcast,230,2013-11-28 11:15:00
6:35 AM,24.8,12.2,59,30.24,10.0,SW,6.9,-,N/A,,Overcast,220,2013-11-28 11:35:00
6:54 AM,23.0,12.2,63,30.24,10.0,SW,11.5,-,N/A,,Overcast,220,2013-11-28 11:54:00
7:15 AM,23.0,14.0,68,30.25,10.0,SW,6.9,-,N/A,,Overcast,220,2013-11-28 12:15:00
7:35 AM,23.0,12.2,63,30.26,10.0,SW,9.2,-,N/A,,Overcast,220,2013-11-28 12:35:00
7:54 AM,23.0,12.2,63,30.26,10.0,SSW,11.5,-,N/A,,Overcast,210,2013-11-28 12:54:00
8:15 AM,23.0,12.2,63,30.26,10.0,SSW,8.1,-,N/A,,Overcast,210,2013-11-28 13:15:00
8:35 AM,23.0,12.2,63,30.26,10.0,SSW,8.1,-,N/A,,Overcast,210,2013-11-28 13:35:00
8:54 AM,23.0,12.2,63,30.26,10.0,SSW,8.1,-,N/A,,Overcast,200,2013-11-28 13:54:00
9:15 AM,23.0,12.2,63,30.26,10.0,SSW,9.2,-,N/A,,Overcast,200,2013-11-28 14:15:00
9:35 AM,24.8,14.0,64,30.26,10.0,SSW,10.4,-,N/A,,Overcast,200,2013-11-28 14:35:00
9:54 AM,24.8,14.0,64,30.26,10.0,SSW,10.4,-,N/A,,Overcast,200,2013-11-28 14:54:00
10:15 AM,24.8,12.2,59,30.26,10.0,SSW,10.4,-,N/A,,Overcast,200,2013-11-28 15:15:00
10:35 AM,24.8,14.0,64,30.26,10.0,South,10.4,-,N/A,,Overcast,190,2013-11-28 15:35:00
10:54 AM,24.8,14.0,64,30.25,10.0,SSW,11.5,-,N/A,,Overcast,200,2013-11-28 15:54:00
11:15 AM,24.8,14.0,64,30.25,10.0,SSW,9.2,-,N/A,,Overcast,200,2013-11-28 16:15:00
11:35 AM,24.8,14.0,64,30.24,10.0,SSW,15.0,19.6,N/A,,Overcast,200,2013-11-28 16:35:00
11:54 AM,24.8,14.0,64,30.23,10.0,SSW,10.4,17.3,N/A,,Overcast,200,2013-11-28 16:54:00
12:15 PM,24.8,15.8,69,30.23,10.0,SSW,10.4,-,N/A,,Overcast,210,2013-11-28 17:15:00
12:35 PM,24.8,12.2,59,30.22,10.0,SSW,13.8,-,N/A,,Overcast,200,2013-11-28 17:35:00
12:54 PM,26.6,12.2,55,30.21,10.0,SSW,12.7,-,N/A,,Overcast,200,2013-11-28 17:54:00
1:15 PM,26.6,12.2,55,30.21,10.0,SSW,11.5,-,N/A,,Overcast,210,2013-11-28 18:15:00
1:35 PM,26.6,12.2,55,30.20,10.0,South,10.4,-,N/A,,Overcast,190,2013-11-28 18:35:00
1:54 PM,26.6,14.0,59,30.20,10.0,SSW,11.5,-,N/A,,Overcast,200,2013-11-28 18:54:00
2:15 PM,26.6,14.0,59,30.20,10.0,SSW,10.4,-,N/A,,Overcast,210,2013-11-28 19:15:00
2:35 PM,26.6,12.2,55,30.20,10.0,SW,10.4,-,N/A,,Overcast,220,2013-11-28 19:35:00
2:54 PM,26.6,12.2,55,30.20,10.0,SW,11.5,16.1,N/A,,Overcast,220,2013-11-28 19:54:00
3:15 PM,28.4,14.0,55,30.21,10.0,SW,9.2,-,N/A,,Overcast,230,2013-11-28 20:15:00
3:35 PM,28.4,14.0,55,30.23,10.0,WSW,8.1,-,N/A,,Overcast,240,2013-11-28 20:35:00
3:54 PM,28.4,14.0,55,30.23,10.0,WSW,8.1,-,N/A,,Overcast,240,2013-11-28 20:54:00
4:15 PM,28.4,14.0,55,30.24,10.0,SW,5.8,-,N/A,,Overcast,230,2013-11-28 21:15:00
4:35 PM,26.6,15.8,64,30.25,10.0,WSW,3.5,-,N/A,,Overcast,240,2013-11-28 21:35:00
4:54 PM,26.6,15.8,64,30.25,10.0,Calm,Calm,-,N/A,,Overcast,0,2013-11-28 21:54:00
5:15 PM,26.6,15.8,64,30.26,10.0,Calm,Calm,-,N/A,,Overcast,0,2013-11-28 22:15:00
5:35 PM,26.6,15.8,64,30.27,10.0,Calm,Calm,-,N/A,,Overcast,0,2013-11-28 22:35:00
5:54 PM,26.6,15.8,64,30.28,10.0,Calm,Calm,-,N/A,,Overcast,0,2013-11-28 22:54:00
6:15 PM,26.6,15.8,64,30.29,10.0,Calm,Calm,-,N/A,,Overcast,0,2013-11-28 23:15:00
6:35 PM,26.6,15.8,64,30.30,10.0,Calm,Calm,-,N/A,,Overcast,0,2013-11-28 23:35:00
6:54 PM,26.6,15.8,64,30.30,10.0,Calm,Calm,-,N/A,,Overcast,0,2013-11-28 23:54:00
7:15 PM,26.6,17.6,69,30.31,10.0,Calm,Calm,-,N/A,,Overcast,0,2013-11-29 00:15:00
7:35 PM,26.6,15.8,64,30.32,10.0,Calm,Calm,-,N/A,,Overcast,0,2013-11-29 00:35:00
7:54 PM,24.8,17.6,74,30.33,10.0,Calm,Calm,-,N/A,,Overcast,0,2013-11-29 00:54:00
8:15 PM,24.8,15.8,69,30.34,10.0,Calm,Calm,-,N/A,,Overcast,0,2013-11-29 01:15:00
8:35 PM,26.6,17.6,69,30.34,10.0,Calm,Calm,-,N/A,,Overcast,0,2013-11-29 01:35:00
8:54 PM,24.8,19.4,80,30.34,10.0,Calm,Calm,-,N/A,,Overcast,0,2013-11-29 01:54:00
9:15 PM,26.6,17.6,69,30.35,10.0,Calm,Calm,-,N/A,,Overcast,0,2013-11-29 02:15:00
9:35 PM,26.6,19.4,74,30.35,10.0,Calm,Calm,-,N/A,,Overcast,0,2013-11-29 02:35:00
9:54 PM,26.6,17.6,69,30.36,10.0,Calm,Calm,-,N/A,,Overcast,0,2013-11-29 02:54:00
10:15 PM,26.6,19.4,74,30.37,10.0,Calm,Calm,-,N/A,,Overcast,0,2013-11-29 03:15:00
10:35 PM,28.4,17.6,64,30.37,10.0,Calm,Calm,-,N/A,,Overcast,0,2013-11-29 03:35:00
10:54 PM,28.4,17.6,64,30.38,10.0,Calm,Calm,-,N/A,,Overcast,0,2013-11-29 03:54:00
11:15 PM,28.4,19.4,69,30.38,10.0,Calm,Calm,-,N/A,,Overcast,0,2013-11-29 04:15:00
11:35 PM,28.4,19.4,69,30.39,10.0,WNW,3.5,-,N/A,,Overcast,300,2013-11-29 04:35:00
11:54 PM,28.4,19.4,69,30.40,10.0,Calm,Calm,-,N/A,,Overcast,0,2013-11-29 04:54:00